Temperature
17 18 18 18 18 18 18 18 18 18 18 18 18 18 18 18 18 18 18 18 18 18 18 18 18 18 18 18 18 18 18 18 18 18 18 18 18 18 18 18 18 18 18
18 18 18 18 18 18 18 18 18 18 18 18 18 18 18 18 18 18 18 18 18 18 18 18 18 18 18 18 18 18 18 18 18 18 18 18 18 18 18 18 18 18 18
18 18 18 18 18 18 18 18 18 18 18 18 18 18 18 18 18 18 18 18 18 18 18 18 18 18 17 17 17 17 17 17 17 17 18 18 18 18 17 18 18 18 18
18 18 18 18 18 18 18 18 18 18 18 18 18 18 18 18 18 18 18 17 17 18 18 18 18 17 17 17 17 17 17 17 17 17 17 17 17 17 17 17 17 17 17
18 18 18 18 18 18 18 18 17 18 18 18 18 18 17 17 17 17 17 17 17 17 17 17 17 17 17 17 17 17 17 17 17 17 17 17 17 17 17 17 17 17 17
18 18 18 18 18 18 18 17 17 17 17 17 17 17 17 17 17 17 17 17 17 17 17 17 17 17 17 17 17 17 17 17 17 17 17 17 17 17 17 17 17 17 17
18 18 18 18 18 18 17 17 17 17 17 17 17 17 17 17 17 17 17 17 17 17 17 17 17 17 17 17 17 17 17 17 17 17 17 17 17 17 17 17 17 17 17
18 18 18 18 17 17 17 17 17 17 17 17 17 17 17 17 17 17 17 17 17 17 17 17 17 17 17 17 17 17 17 17 17 17 17 16 17 17 17 17 17 17 17
18 18 18 18 17 17 17 17 17 17 17 17 17 17 17 17 17 17 16 17 17 17 17 17 17 16 16 16 16 17 17 17 17 17 17 17 17 17 17 17 17 17 17
18 18 18 18 17 17 17 17 17 17 17 17 17 17 17 17 17 16 16 16 16 16 16 16 16 16 16 16 16 16 17 17 17 17 16 16 16 17 16 16 16 16 16
18 18 18 17 17 17 17 17 17 17 17 17 17 17 16 16 16 16 16 16 16 16 16 16 16 16 16 16 16 16 16 16 16 16 16 16 16 16 16 16 16 16 16
18 18 18 17 17 17 17 17 17 16 16 16 16 16 16 16 16 16 16 16 16 16 16 16 16 16 16 16 16 16 16 16 16 16 16 16 16 16 16 16 16 16 16
18 18 18 17 17 17 17 17 17 16 16 16 16 16 16 16 16 16 16 16 16 16 16 16 16 16 16 16 16 16 16 16 16 16 16 16 16 16 16 16 16 16 16
18 18 18 17 17 17 17 17 17 17 16 16 16 16 16 16 16 16 16 16 16 16 16 16 16 16 16 16 16 16 16 16 16 16 15 15 15 15 15 15 15 15 15
18 18 18 17 17 17 17 17 17 16 16 16 16 16 16 16 16 16 16 16 16 16 16 16 16 16 16 16 16 16 16 16 15 15 15 15 15 15 15 15 15 15 15
18 18 17 17 17 17 17 17 16 16 16 16 16 16 16 16 16 16 16 16 16 16 16 16 15 15 15 15 15 15 15 15 15 15 15 15 15 15 15 15 15 15 15
18 18 17 17 17 17 17 16 16 16 16 16 16 16 16 16 16 16 16 15 15 15 16 15 15 15 15 15 15 15 15 15 15 15 15 15 15 15 15 15 14 14 14
18 17 17 17 17 17 17 16 16 16 16 16 16 15 15 15 15 15 15 15 15 15 15 15 15 15 15 15 15 15 15 15 15 15 14 14 14 14 14 14 14 14 14
17 17 17 17 17 17 16 16 16 16 16 16 16 15 15 15 15 15 15 15 15 15 15 15 15 15 15 15 15 15 14 14 14 14 14 14 14 14 14 14 14 14 14
17 17 17 17 17 16 16 16 16 16 16 15 15 15 15 15 15 15 15 15 15 15 15 15 15 15 15 15 14 14 14 14 14 14 14 14 14 14 14 14 14 14 14
17 17 17 17 16 16 16 16 16 16 15 15 15 15 15 15 15 15 15 14 14 14 14 14 14 14 14 14 14 14 14 14 14 14 14 14 14 14 14 14 14 14 14
17 17 16 16 16 16 16 15 15 15 15 15 15 15 15 14 14 14 14 14 14 14 14 14 14 14 14 14 14 14 13 13 13 13 13 13 13 13 13 13 13 13 13
16 16 16 16 16 16 15 15 15 15 15 15 15 14 14 14 14 14 14 14 14 14 14 14 14 14 14 14 14 14 13 13 13 13 13 13 13 13 13 13 13 13 13
16 16 16 15 15 15 15 15 15 15 15 14 14 14 14 14 14 14 14 14 14 14 13 13 13 13 13 13 13 13 13 13 13 12 12 13 13 13 13 13 13 12 12
15 15 15 15 15 15 15 14 14 14 14 14 14 14 14 14 13 13 13 13 13 13 13 13 13 13 13 13 13 13 13 13 13 13 12 12 12 12 12 12 12 12 12
15 15 14 14 14 14 14 14 14 14 14 14 14 13 13 13 13 13 13 13 13 13 13 13 13 13 13 13 13 13 13 12 12 12 12 12 12 12 12 12 12 12 12
Wind_Speed
2 1 6 8 9 10 11 12 12 13 13 12 12 11 11 11 11 10 10 11 11 11 11 11 11 11 11 10 9 8 9 9 9 8 8 8 7 8 8 8 7 6 7
2 2 7 9 10 10 11 12 12 13 13 13 12 11 11 10 11 11 11 11 11 11 11 11 11 11 10 10 8 9 10 9 9 8 8 7 7 7 7 7 7 6 7
3 4 6 9 11 11 11 11 12 13 13 13 12 12 11 10 11 11 11 11 11 12 11 11 11 10 10 9 9 10 10 9 10 9 8 6 6 7 7 7 7 7 7
5 5 7 9 10 11 11 12 12 12 13 12 12 12 12 12 11 11 11 12 12 12 12 11 11 10 9 10 10 10 9 9 9 8 7 5 5 6 7 7 7 8 8
5 6 8 10 10 11 11 12 12 12 12 12 12 12 13 13 13 12 12 12 12 12 12 11 11 10 10 10 9 9 9 9 9 8 7 6 5 7 8 8 7 8 9
5 6 8 10 10 11 11 12 12 12 12 13 13 13 13 13 13 13 12 12 12 11 11 11 10 10 10 10 10 10 10 10 9 8 7 7 6 8 9 8 8 9 9
4 5 7 9 10 10 11 11 12 12 13 13 13 12 13 13 13 13 12 12 11 11 11 11 10 10 10 11 11 11 11 10 9 8 7 7 8 9 9 9 9 9 9
5 5 6 8 9 10 10 11 11 12 12 12 13 13 13 13 12 12 13 12 11 11 11 10 10 10 11 11 11 11 11 10 10 9 8 7 9 10 10 11 11 10 9
5 5 4 5 7 8 9 10 10 10 11 11 12 12 12 12 12 12 12 12 11 10 10 10 11 11 11 11 11 11 11 11 8 7 7 7 9 10 11 11 11 10 10
4 4 3 4 5 5 6 8 8 9 9 10 11 11 11 11 11 11 11 12 11 10 10 10 10 10 10 11 11 12 12 10 8 7 6 7 10 10 10 11 11 11 11
4 2 2 2 3 4 5 6 6 7 7 8 8 10 10 9 9 8 9 10 10 9 8 8 9 9 10 10 11 11 10 7 7 6 6 9 10 10 10 10 11 11 11
3 2 2 2 2 3 4 5 5 5 5 6 6 7 7 7 6 7 8 8 8 8 7 7 7 7 8 8 9 9 7 7 6 6 7 10 10 10 10 10 10 10 10
5 4 3 2 3 3 4 5 5 5 5 5 5 5 5 6 6 6 6 6 5 6 6 6 6 5 6 6 6 6 7 7 6 6 7 10 10 10 10 10 10 10 10
5 4 4 4 4 4 4 4 4 4 4 4 5 5 5 3 3 3 3 4 4 4 4 4 4 5 5 6 7 6 6 6 6 6 7 9 10 10 10 11 11 11 10
4 4 4 4 4 4 4 3 4 4 4 4 5 5 5 3 2 3 2 3 3 4 3 2 3 4 5 5 6 7 5 6 6 6 6 8 9 9 9 10 10 10 10
4 3 3 5 4 5 4 3 3 4 4 5 5 5 5 4 3 3 3 3 3 4 3 3 4 4 3 4 5 5 5 5 6 6 5 6 7 7 7 8 8 8 8
4 4 4 5 4 5 4 3 3 4 5 5 5 5 6 5 4 3 3 3 3 5 6 6 6 5 4 4 4 4 5 5 5 5 5 5 5 6 6 6 6 7 7
4 4 4 5 5 4 3 3 4 5 5 5 6 6 6 6 5 4 3 3 4 5 5 4 4 4 4 3 3 2 3 3 4 4 5 5 5 5 6 6 6 6 6
4 4 4 4 5 4 3 3 4 5 5 5 6 6 6 6 6 5 3 3 4 4 3 3 3 3 3 3 2 3 2 2 2 4 4 4 5 5 5 5 6 5 5
4 4 4 4 4 3 3 3 3 4 3 5 5 6 6 6 6 6 4 4 4 4 3 3 4 3 2 2 3 4 2 2 2 3 3 3 4 4 4 4 4 3 4
4 4 4 4 3 3 2 2 2 2 2 2 4 6 6 6 6 5 4 4 3 3 3 3 3 4 3 3 3 3 4 3 3 2 2 3 3 3 4 4 3 3 3
4 4 4 3 2 2 2 1 2 1 1 1 2 5 6 6 6 5 4 3 3 3 3 3 3 2 2 2 2 2 2 3 3 3 2 2 2 2 2 3 3 3 3
4 4 3 2 2 2 2 2 3 3 3 3 3 3 4 5 5 5 5 3 3 3 2 2 3 3 1 1 1 2 2 1 1 2 2 1 1 1 1 2 3 3 3
3 3 3 2 2 2 3 4 4 3 2 0 1 1 2 4 4 4 4 4 3 2 2 2 2 2 2 1 1 1 1 2 2 1 2 2 1 1 1 1 2 2 3
3 3 3 3 2 2 2 3 3 2 1 0 1 2 2 3 3 4 4 4 2 2 2 2 3 2 2 1 0 0 1 2 2 2 1 2 2 2 1 1 1 1 2
3 3 3 3 2 2 2 2 3 3 2 2 2 2 2 2 1 3 3 3 2 2 2 1 2 2 2 2 2 1 1 1 1 1 1 1 1 2 2 1 2 1 2
Wind_Direction
322 352 62 69 75 73 71 71 72 72 72 71 71 71 74 76 77 79 83 88 89 86 84 83 84 88 87 83 83 86 89 89 90 91 90 91 96 101 103 101 101 103 110
177 85 75 75 77 75 73 73 73 73 70 68 68 69 71 74 78 80 84 87 88 88 88 87 87 87 87 87 87 87 87 89 87 84 83 87 93 98 101 104 104 107 111
112 94 82 81 79 75 75 75 77 75 71 67 66 68 69 74 80 83 88 89 89 89 88 89 91 90 89 89 88 85 84 82 83 78 73 73 85 96 101 104 103 108 110
114 102 89 86 83 79 78 78 78 76 73 68 67 69 71 73 79 84 90 90 90 88 87 89 90 92 90 88 87 84 79 75 73 68 65 68 83 91 100 105 106 109 108
101 98 95 90 87 85 81 80 78 77 73 69 68 69 73 75 78 84 89 90 88 86 85 87 88 87 85 85 85 84 80 76 72 65 60 63 77 90 93 95 103 107 105
100 101 100 96 92 88 83 80 77 75 74 71 70 71 74 76 78 83 87 88 87 85 84 83 83 84 83 83 83 85 82 78 72 67 62 68 78 89 89 92 97 104 107
110 106 107 103 97 91 86 82 78 75 75 73 70 73 72 74 77 81 85 88 87 83 81 79 82 84 84 82 85 85 81 78 74 72 67 72 80 87 87 89 91 99 101
117 111 106 108 102 96 90 85 81 78 77 75 70 72 71 72 75 79 81 82 83 84 81 76 77 80 82 81 84 83 79 77 77 76 74 74 83 85 86 87 88 94 96
101 97 93 104 103 99 98 93 88 83 80 76 72 71 71 71 73 77 79 80 79 81 78 73 74 77 79 78 79 81 80 77 72 75 79 80 86 84 86 88 88 90 92
94 88 86 95 98 98 98 94 90 84 79 75 73 70 71 69 69 71 73 76 77 79 78 73 72 72 71 74 78 80 81 77 71 70 75 85 89 88 89 90 90 88 87
102 97 84 90 101 111 105 92 82 78 76 75 72 70 68 63 62 67 71 73 73 72 73 72 72 70 68 73 77 76 74 73 71 69 76 89 89 91 93 92 90 88 88
126 120 102 93 98 99 94 89 76 72 69 72 74 73 72 64 57 63 68 68 67 59 54 56 57 64 70 75 75 73 74 70 67 68 80 85 88 90 92 93 91 91 89
147 137 132 128 107 93 79 84 71 68 65 64 67 69 71 61 55 55 56 50 47 45 41 38 41 55 69 82 85 82 78 75 69 68 79 82 85 91 91 92 92 92 89
125 124 123 113 96 84 83 80 68 61 57 54 61 72 77 68 57 50 49 39 38 40 38 35 47 52 70 85 91 89 83 85 80 76 82 86 89 92 93 93 93 91 91
112 117 125 113 102 90 80 71 69 57 57 53 56 69 87 85 68 60 47 46 41 43 48 39 50 60 66 74 88 93 91 88 85 83 84 85 90 95 96 96 96 92 91
101 100 106 111 105 94 86 79 70 67 63 58 57 61 76 80 76 69 48 44 46 53 65 77 71 76 70 75 75 87 95 97 91 86 83 84 87 93 98 99 97 94 93
112 103 100 116 107 105 101 91 78 71 70 58 52 56 67 74 78 76 62 47 45 61 69 74 67 71 71 68 62 70 87 90 97 89 84 82 83 85 89 96 98 95 94
107 96 97 99 94 94 100 98 80 71 64 54 54 54 58 66 77 80 71 49 51 72 73 70 66 67 65 67 63 55 69 84 98 99 91 86 84 82 78 82 89 89 86
118 111 98 94 96 94 86 84 79 72 62 55 54 52 52 60 67 75 67 51 65 71 61 74 61 75 76 70 77 65 58 63 77 91 94 95 94 90 82 76 79 82 84
108 107 102 94 89 86 77 68 63 65 55 49 49 45 51 55 61 67 62 55 70 71 53 57 66 55 68 69 76 59 38 34 53 70 91 99 98 99 94 86 84 81 77
96 96 95 86 82 87 87 84 75 65 51 39 38 43 50 52 55 64 60 57 64 78 75 69 71 61 50 49 70 41 11 21 41 46 64 78 79 93 98 98 97 96 81
103 99 91 92 94 92 102 137 134 133 104 63 31 38 45 50 51 63 68 65 67 70 62 63 68 72 51 52 97 89 24 1 3 15 27 63 61 73 88 95 103 102 91
102 111 110 101 84 81 82 87 73 53 37 28 19 20 24 47 53 59 66 72 69 73 79 70 72 85 79 7 59 117 130 211 308 345 356 18 32 53 57 88 105 115 108
114 115 110 99 88 88 91 99 107 95 90 291 319 355 13 39 51 60 68 70 79 70 72 71 67 67 104 61 360 27 133 150 146 320 337 347 4 42 45 72 93 119 121
98 95 102 99 86 85 91 106 117 106 145 19 14 19 12 21 40 56 73 74 80 67 62 64 63 58 78 94 93 50 59 46 79 143 263 324 345 341 357 43 67 107 129
71 75 81 96 87 75 84 94 115 122 125 95 46 23 350 358 21 44 64 73 77 76 69 75 81 74 60 68 66 83 107 115 141 131 176 250 284 313 338 27 49 61 104
Height
1525 1523 1522 1520 1519 1518 1517 1516 1515 1514 1513 1512 1512 1511 1511 1511 1510 1510 1510 1510 1510 1510 1509 1508 1507 1508 1509 1510 1511 1511 1511 1511 1511 1512 1512 1512 1512 1512 1513 1513 1513 1514 1514
1526 1524 1523 1521 1520 1519 1518 1517 1516 1515 1515 1514 1513 1513 1512 1511 1511 1511 1511 1511 1511 1511 1511 1510 1510 1510 1510 1511 1511 1511 1512 1511 1512 1512 1512 1512 1513 1513 1513 1513 1514 1514 1514
1527 1525 1524 1523 1521 1520 1519 1518 1517 1517 1516 1515 1514 1514 1513 1512 1512 1511 1511 1512 1512 1512 1512 1512 1511 1511 1511 1511 1512 1512 1512 1512 1512 1513 1513 1513 1513 1513 1513 1513 1514 1514 1514
1528 1527 1525 1524 1523 1522 1520 1520 1519 1518 1517 1516 1516 1515 1514 1513 1513 1512 1512 1513 1513 1513 1513 1513 1512 1512 1512 1512 1512 1512 1512 1512 1513 1513 1513 1513 1513 1514 1514 1514 1514 1514 1514
1529 1528 1527 1526 1524 1523 1522 1521 1521 1520 1519 1518 1516 1515 1515 1514 1514 1513 1513 1514 1514 1514 1514 1514 1514 1513 1513 1513 1513 1513 1513 1513 1513 1514 1514 1514 1514 1514 1515 1515 1515 1515 1515
1530 1529 1528 1527 1526 1525 1524 1523 1522 1521 1520 1519 1518 1516 1516 1516 1516 1515 1515 1516 1516 1515 1515 1515 1515 1515 1515 1514 1514 1514 1514 1514 1514 1514 1514 1515 1515 1515 1515 1515 1515 1515 1515
1531 1531 1530 1529 1528 1527 1526 1525 1525 1524 1523 1521 1520 1519 1519 1519 1518 1518 1517 1517 1517 1517 1517 1517 1516 1516 1516 1515 1515 1515 1515 1515 1515 1515 1515 1515 1515 1515 1515 1515 1515 1515 1516
1533 1532 1531 1531 1530 1529 1528 1527 1527 1526 1525 1524 1523 1522 1521 1521 1520 1520 1520 1519 1519 1519 1519 1518 1518 1518 1517 1517 1517 1516 1516 1516 1516 1516 1516 1516 1516 1516 1516 1516 1516 1516 1516
1534 1533 1533 1533 1532 1531 1530 1529 1529 1528 1527 1526 1525 1525 1524 1523 1523 1522 1521 1521 1521 1520 1520 1520 1520 1519 1519 1518 1518 1518 1518 1518 1517 1517 1517 1517 1517 1517 1517 1517 1517 1517 1517
1535 1535 1534 1534 1533 1533 1532 1531 1531 1530 1529 1528 1527 1527 1526 1525 1524 1524 1523 1523 1523 1522 1522 1522 1522 1521 1521 1520 1520 1520 1520 1519 1519 1518 1518 1518 1518 1518 1518 1518 1518 1518 1517
1536 1536 1536 1535 1535 1534 1534 1533 1532 1531 1531 1530 1529 1529 1528 1527 1527 1526 1525 1525 1524 1524 1524 1524 1523 1523 1522 1522 1522 1521 1521 1521 1520 1520 1519 1519 1519 1519 1519 1519 1519 1518 1518
1537 1537 1537 1537 1536 1536 1535 1534 1534 1533 1532 1532 1531 1531 1530 1529 1529 1528 1527 1527 1526 1526 1525 1525 1525 1524 1524 1524 1523 1523 1523 1522 1522 1521 1521 1521 1520 1520 1519 1519 1519 1519 1519
1538 1538 1538 1538 1537 1537 1536 1535 1535 1534 1534 1533 1533 1532 1531 1531 1530 1530 1529 1528 1528 1527 1527 1526 1526 1526 1525 1525 1525 1524 1524 1524 1523 1523 1522 1522 1521 1521 1521 1520 1520 1520 1520
1538 1538 1538 1538 1538 1537 1537 1536 1536 1535 1535 1534 1534 1533 1533 1532 1532 1531 1530 1530 1529 1528 1528 1528 1527 1527 1526 1526 1526 1525 1525 1525 1524 1524 1523 1523 1523 1522 1522 1521 1521 1521 1521
1538 1539 1539 1539 1538 1538 1538 1537 1537 1537 1536 1536 1535 1534 1534 1533 1533 1532 1531 1531 1530 1530 1529 1529 1528 1528 1527 1527 1527 1526 1526 1526 1525 1525 1525 1524 1524 1523 1523 1522 1522 1522 1522
1538 1539 1539 1539 1539 1539 1538 1538 1538 1538 1537 1537 1536 1535 1535 1534 1534 1533 1532 1531 1531 1530 1530 1529 1529 1528 1528 1528 1528 1527 1527 1527 1526 1526 1526 1525 1525 1524 1524 1523 1523 1523 1522
1538 1539 1539 1539 1539 1539 1539 1539 1538 1538 1538 1537 1537 1536 1535 1535 1534 1534 1533 1532 1531 1531 1530 1530 1529 1529 1529 1529 1528 1528 1528 1528 1527 1527 1526 1526 1525 1525 1524 1524 1524 1523 1523
1538 1538 1538 1538 1539 1539 1539 1539 1538 1538 1538 1537 1537 1536 1536 1535 1535 1534 1533 1533 1532 1531 1531 1530 1530 1529 1529 1529 1529 1529 1529 1528 1528 1528 1527 1527 1526 1526 1525 1525 1524 1524 1524
1537 1538 1538 1538 1538 1538 1538 1539 1538 1538 1538 1537 1537 1536 1536 1535 1535 1534 1534 1533 1532 1532 1531 1530 1530 1530 1529 1529 1529 1529 1529 1529 1528 1528 1528 1527 1527 1526 1525 1525 1524 1524 1524
1537 1537 1537 1537 1538 1538 1538 1538 1538 1538 1537 1537 1537 1536 1536 1535 1535 1534 1534 1533 1532 1532 1531 1530 1530 1530 1530 1529 1529 1529 1529 1529 1529 1528 1528 1527 1527 1527 1526 1525 1525 1525 1524
1536 1536 1536 1536 1537 1537 1537 1537 1537 1537 1537 1537 1536 1536 1535 1535 1534 1534 1533 1533 1532 1532 1531 1530 1530 1529 1529 1529 1529 1529 1529 1529 1529 1528 1528 1527 1527 1527 1526 1526 1525 1525 1524
1535 1535 1536 1536 1536 1536 1536 1536 1536 1536 1536 1536 1536 1536 1535 1535 1534 1534 1533 1532 1532 1531 1531 1530 1530 1529 1529 1529 1529 1528 1529 1530 1528 1528 1528 1527 1527 1527 1526 1526 1525 1525 1524
1534 1534 1535 1535 1535 1535 1535 1536 1536 1536 1536 1535 1535 1535 1534 1534 1533 1533 1532 1532 1531 1531 1530 1529 1529 1529 1528 1528 1529 1529 1528 1528 1528 1528 1528 1527 1527 1526 1526 1525 1525 1525 1524
1533 1534 1534 1534 1535 1535 1535 1534 1534 1534 1534 1534 1534 1534 1534 1533 1533 1532 1532 1531 1530 1530 1529 1529 1529 1528 1528 1527 1527 1528 1528 1527 1527 1527 1527 1527 1527 1526 1525 1525 1525 1524 1524
1533 1533 1533 1534 1534 1534 1534 1533 1533 1533 1533 1533 1533 1533 1533 1532 1532 1531 1530 1530 1529 1529 1528 1528 1528 1527 1527 1526 1526 1526 1526 1526 1526 1526 1526 1526 1526 1525 1525 1524 1524 1524 1523
1532 1532 1532 1533 1533 1533 1533 1533 1532 1532 1532 1531 1531 1531 1531 1531 1530 1530 1529 1529 1528 1528 1527 1527 1526 1526 1526 1525 1525 1525 1525 1525 1524 1524 1524 1524 1524 1524 1524 1523 1523 1523 1522